Tracking 29892 objects as of 21-Nov-2024
HD Live streaming from Space Station
objects crossing your sky now

STARLINK-32436

Track STARLINK-32436 now!
10-day predictions


NORAD ID: 61215
Int'l Code: 2024-171R
Perigee: 469.6 km
Apogee: 471.3 km
Inclination: 53.2 °
Period: 93.9 minutes
Semi major axis: 6841 km
RCS: Unknown
Launch date: September 20, 2024
Source: United States (US)
Launch site: AIR FORCE WESTERN TEST RANGE (AFWTR)
Your satellite tracking list
Your tracking list is empty




NASA's NSSDC Master Catalog

Two Line Element Set (TLE):
1 61215U 24171R   24326.13722150  .00001702  00000-0  61858-4 0  9990
2 61215  53.1598   2.8873 0001247 109.8556 250.2581 15.34207531 10751
Source of the keplerian elements: AFSPC